Tracking 18785 objects as of 26-July-2017
HD Live streaming from Space Station
objects crossing your sky now
MAYAK may become the brightest orbital object in the night sky!
Where is MAYAK now?
How to spot MAYAK

OPS 0441

Track OPS 0441 now!
OPS 0441 is classified as:


NORAD ID: 14675
Int'l Code: 1984-009A
Perigee: 31,442.0 km
Apogee: 40,132.8 km
Inclination: 7.5 °
Period: 1,435.8 minutes
Semi major axis: 42158 km
RCS: Unknown
Launch date: January 31, 1984
Source: United States (US)
Launch site: AIR FORCE EASTERN TEST RANGE (AFETR)
Your satellite tracking list
Your tracking list is empty





NASA's NSSDC Master Catalog

Two Line Element Set (TLE):
1 14675U 84009A   17084.46151473 0.00000000  00000-0  00000-0 0    08
2 14675   7.5197 349.9281 1030722 347.7671   9.9302  1.00294418    02
Source of the keplerian elements: McCants